Time,TemperatureF,DewpointF,PressureIn,WindDirection,WindDirectionDegrees,WindSpeedMPH,WindSpeedGustMPH,Humidity,HourlyPrecipIn,Conditions,Clouds,dailyrainin,SoftwareType,DateUTC
2013-04-16 00:02:00,47.1,43.5,29.96,NNW,337,1.1,11.0,87,0.06,,,0.00,WUHU21623XXSP,2013-04-16 05:02:00,
2013-04-16 00:07:00,47.1,43.8,29.95,North,0,0.0,5.6,88,0.06,,,0.00,WUHU21623XXSP,2013-04-16 05:07:00,
2013-04-16 00:12:00,47.1,43.8,29.95,NNW,337,3.4,6.3,88,0.06,,,0.00,WUHU21623XXSP,2013-04-16 05:12:00,
2013-04-16 00:17:00,47.1,43.8,29.95,NNW,337,3.4,6.3,89,0.06,,,0.00,WUHU21623XXSP,2013-04-16 05:17:00,
2013-04-16 00:22:00,47.1,44.1,29.95,NNW,337,7.2,7.2,89,0.06,,,0.00,WUHU21623XXSP,2013-04-16 05:22:00,
2013-04-16 00:27:00,47.1,44.1,29.95,NNW,337,0.0,7.2,89,0.06,,,0.00,WUHU21623XXSP,2013-04-16 05:27:00,
2013-04-16 00:32:00,47.1,44.1,29.95,NNW,337,2.0,3.6,89,0.04,,,0.00,WUHU21623XXSP,2013-04-16 05:32:00,
2013-04-16 00:37:00,47.1,44.1,29.95,NNW,337,2.9,3.6,89,0.02,,,0.00,WUHU21623XXSP,2013-04-16 05:37:00,
2013-04-16 00:42:00,47.1,44.3,29.95,NNW,337,12.8,12.8,89,0.00,,,0.00,WUHU21623XXSP,2013-04-16 05:42:00,
2013-04-16 00:47:00,47.1,44.3,29.95,North,0,0.0,12.8,89,0.00,,,0.00,WUHU21623XXSP,2013-04-16 05:47:00,
2013-04-16 00:52:00,47.3,44.3,29.95,NNW,337,0.0,12.8,89,0.00,,,0.00,WUHU21623XXSP,2013-04-16 05:52:00,
2013-04-16 00:57:00,47.1,44.1,29.95,NNW,337,7.4,7.4,89,0.00,,,0.00,WUHU21623XXSP,2013-04-16 05:57:00,
2013-04-16 01:02:00,47.1,44.1,29.96,NNW,337,6.0,7.4,89,0.00,,,0.00,WUHU21623XXSP,2013-04-16 06:02:00,
2013-04-16 01:07:00,47.1,44.1,29.94,North,0,0.0,6.0,89,0.02,,,0.02,WUHU21623XXSP,2013-04-16 06:07:00,
2013-04-16 01:12:00,47.1,44.1,29.94,North,0,0.0,4.9,89,0.02,,,0.02,WUHU21623XXSP,2013-04-16 06:12:00,
2013-04-16 01:17:00,47.1,44.1,29.93,NNE,22,0.0,0.0,89,0.02,,,0.02,WUHU21623XXSP,2013-04-16 06:17:00,
2013-04-16 01:22:00,47.1,44.1,29.93,NNE,22,0.0,0.0,89,0.02,,,0.02,WUHU21623XXSP,2013-04-16 06:22:00,
2013-04-16 01:27:00,47.1,44.1,29.94,North,0,0.9,0.9,89,0.02,,,0.02,WUHU21623XXSP,2013-04-16 06:27:00,
2013-04-16 01:32:00,47.1,44.1,29.94,NNW,337,0.0,0.9,89,0.02,,,0.02,WUHU21623XXSP,2013-04-16 06:32:00,
2013-04-16 01:37:00,46.9,43.9,29.96,NW,315,1.8,8.9,89,0.02,,,0.02,WUHU21623XXSP,2013-04-16 06:37:00,
2013-04-16 01:42:00,47.1,44.1,29.97,NW,315,0.0,8.9,89,0.02,,,0.02,WUHU21623XXSP,2013-04-16 06:42:00,
2013-04-16 01:47:00,46.9,43.9,29.98,NW,315,0.0,0.0,89,0.02,,,0.02,WUHU21623XXSP,2013-04-16 06:47:00,
2013-04-16 01:52:00,46.9,43.9,29.96,NW,315,0.0,0.0,89,0.08,,,0.08,WUHU21623XXSP,2013-04-16 06:52:00,
2013-04-16 01:57:00,46.8,43.7,29.98,WNW,292,6.0,6.0,89,0.12,,,0.12,WUHU21623XXSP,2013-04-16 06:57:00,
2013-04-16 02:02:00,46.8,43.7,29.98,NW,315,8.5,8.5,89,0.10,,,0.12,WUHU21623XXSP,2013-04-16 07:02:00,
2013-04-16 02:07:00,46.6,43.6,29.97,NNW,337,0.0,8.5,89,0.12,,,0.14,WUHU21623XXSP,2013-04-16 07:07:00,
2013-04-16 02:12:00,46.6,43.3,29.98,NNW,337,0.0,8.1,89,0.14,,,0.16,WUHU21623XXSP,2013-04-16 07:12:00,
2013-04-16 02:17:00,46.6,43.3,29.97,North,0,0.0,0.0,88,0.14,,,0.16,WUHU21623XXSP,2013-04-16 07:17:00,
2013-04-16 02:22:00,46.4,43.1,29.98,NNW,337,5.6,5.6,88,0.14,,,0.16,WUHU21623XXSP,2013-04-16 07:22:00,
2013-04-16 02:27:00,46.4,43.1,29.98,NNW,337,0.0,5.6,88,0.14,,,0.16,WUHU21623XXSP,2013-04-16 07:27:00,
2013-04-16 02:32:00,46.4,43.1,29.98,NNW,337,2.2,2.2,88,0.14,,,0.16,WUHU21623XXSP,2013-04-16 07:32:00,
2013-04-16 02:37:00,46.6,42.9,29.99,North,0,0.0,3.8,88,0.14,,,0.16,WUHU21623XXSP,2013-04-16 07:37:00,
2013-04-16 02:42:00,46.4,43.3,29.98,North,0,0.0,3.8,88,0.14,,,0.16,WUHU21623XXSP,2013-04-16 07:42:00,
2013-04-16 02:47:00,46.4,43.1,29.99,North,0,0.0,0.0,88,0.08,,,0.16,WUHU21623XXSP,2013-04-16 07:47:00,
2013-04-16 02:52:00,46.6,43.3,29.98,NNW,337,0.0,0.0,88,0.06,,,0.18,WUHU21623XXSP,2013-04-16 07:52:00,
2013-04-16 02:57:00,46.6,43.3,29.98,NNW,337,0.0,0.0,88,0.08,,,0.20,WUHU21623XXSP,2013-04-16 07:57:00,
2013-04-16 03:02:00,46.4,43.1,29.97,NNW,337,0.0,0.0,88,0.06,,,0.20,WUHU21623XXSP,2013-04-16 08:02:00,
2013-04-16 03:07:00,46.2,42.9,29.97,NNW,337,0.0,2.2,88,0.07,,,0.23,WUHU21623XXSP,2013-04-16 08:07:00,
2013-04-16 03:12:00,46.2,42.9,29.98,NW,315,0.0,2.2,88,0.07,,,0.23,WUHU21623XXSP,2013-04-16 08:12:00,
2013-04-16 03:17:00,46.2,42.9,29.97,NNW,337,7.8,7.8,88,0.07,,,0.23,WUHU21623XXSP,2013-04-16 08:17:00,
2013-04-16 03:23:00,46.0,42.4,29.98,NNW,337,0.0,7.8,87,0.07,,,0.23,WUHU21623XXSP,2013-04-16 08:23:00,
2013-04-16 03:28:00,45.9,42.4,29.97,NNW,337,0.0,0.0,87,0.07,,,0.23,WUHU21623XXSP,2013-04-16 08:28:00,
2013-04-16 03:33:00,45.7,42.4,29.98,North,0,1.1,9.2,88,0.07,,,0.23,WUHU21623XXSP,2013-04-16 08:33:00,
2013-04-16 03:38:00,45.5,42.2,29.97,NNW,337,4.7,9.2,88,0.07,,,0.23,WUHU21623XXSP,2013-04-16 08:38:00,
2013-04-16 03:43:00,45.5,42.2,29.98,NNW,337,0.0,6.5,88,0.07,,,0.23,WUHU21623XXSP,2013-04-16 08:43:00,
2013-04-16 03:48:00,45.5,42.2,29.98,NW,315,7.6,7.6,88,0.07,,,0.25,WUHU21623XXSP,2013-04-16 08:48:00,
2013-04-16 03:53:00,45.3,42.2,30.00,NW,315,0.0,7.6,88,0.05,,,0.25,WUHU21623XXSP,2013-04-16 08:53:00,
2013-04-16 03:58:00,45.1,42.0,30.01,NW,315,0.0,0.0,88,0.05,,,0.25,WUHU21623XXSP,2013-04-16 08:58:00,
2013-04-16 04:03:00,45.0,42.1,30.01,NW,315,9.4,9.4,89,0.02,,,0.25,WUHU21623XXSP,2013-04-16 09:03:00,
2013-04-16 04:08:00,44.8,42.0,30.01,NW,315,0.0,9.4,89,0.02,,,0.25,WUHU21623XXSP,2013-04-16 09:08:00,
2013-04-16 04:13:00,44.6,41.6,30.01,WNW,292,0.0,7.6,89,0.02,,,0.25,WUHU21623XXSP,2013-04-16 09:13:00,
2013-04-16 04:18:00,44.2,40.6,30.00,NNW,337,6.7,9.4,87,0.02,,,0.25,WUHU21623XXSP,2013-04-16 09:18:00,
2013-04-16 04:23:00,44.1,40.4,30.01,NW,315,0.0,9.4,87,0.02,,,0.25,WUHU21623XXSP,2013-04-16 09:23:00,
2013-04-16 04:28:00,43.9,40.3,30.01,NW,315,0.0,3.8,87,0.02,,,0.25,WUHU21623XXSP,2013-04-16 09:28:00,
2013-04-16 04:33:00,43.7,40.3,30.01,NW,315,5.1,5.1,87,0.02,,,0.25,WUHU21623XXSP,2013-04-16 09:33:00,
2013-04-16 04:38:00,43.7,40.1,30.01,NW,315,0.0,5.1,87,0.02,,,0.25,WUHU21623XXSP,2013-04-16 09:38:00,
2013-04-16 04:43:00,43.7,40.1,30.02,NW,315,0.0,2.2,87,0.00,,,0.25,WUHU21623XXSP,2013-04-16 09:43:00,
2013-04-16 04:48:00,43.7,40.1,30.02,NW,315,6.7,6.7,87,0.00,,,0.25,WUHU21623XXSP,2013-04-16 09:48:00,
2013-04-16 04:53:00,43.7,40.1,30.03,WNW,292,0.0,6.7,87,0.00,,,0.25,WUHU21623XXSP,2013-04-16 09:53:00,
2013-04-16 04:58:00,43.7,40.1,30.03,WNW,292,8.9,8.9,87,0.00,,,0.25,WUHU21623XXSP,2013-04-16 09:58:00,
2013-04-16 05:03:00,43.7,40.1,30.04,NW,315,6.0,8.9,87,0.00,,,0.25,WUHU21623XXSP,2013-04-16 10:03:00,
2013-04-16 05:08:00,43.7,40.1,30.04,NW,315,6.0,8.9,87,0.00,,,0.25,WUHU21623XXSP,2013-04-16 10:08:00,
2013-04-16 05:13:00,43.5,40.1,30.05,NW,315,0.0,6.0,87,0.00,,,0.25,WUHU21623XXSP,2013-04-16 10:13:00,
2013-04-16 05:18:00,43.7,40.1,30.06,WNW,292,4.3,6.0,87,0.00,,,0.25,WUHU21623XXSP,2013-04-16 10:18:00,
2013-04-16 05:23:00,43.5,40.2,30.06,NW,315,3.1,4.3,88,0.00,,,0.25,WUHU21623XXSP,2013-04-16 10:23:00,
2013-04-16 05:28:00,43.5,40.2,30.05,NW,315,1.8,7.2,88,0.00,,,0.25,WUHU21623XXSP,2013-04-16 10:28:00,
2013-04-16 05:33:00,43.7,40.4,30.04,NW,315,7.4,7.4,88,0.00,,,0.25,WUHU21623XXSP,2013-04-16 10:33:00,
2013-04-16 05:38:00,43.7,40.4,30.03,NNW,337,9.4,9.4,88,0.00,,,0.25,WUHU21623XXSP,2013-04-16 10:38:00,
2013-04-16 05:43:00,43.7,40.4,30.03,NNW,337,10.1,10.1,88,0.00,,,0.25,WUHU21623XXSP,2013-04-16 10:43:00,
2013-04-16 05:48:00,43.9,40.6,30.04,NW,315,7.8,10.1,88,0.00,,,0.25,WUHU21623XXSP,2013-04-16 10:48:00,
2013-04-16 05:53:00,43.9,40.6,30.05,NW,315,7.8,10.1,88,0.00,,,0.25,WUHU21623XXSP,2013-04-16 10:53:00,
2013-04-16 05:58:00,43.9,40.6,30.06,NW,315,7.8,8.5,88,0.00,,,0.25,WUHU21623XXSP,2013-04-16 10:58:00,
2013-04-16 06:03:00,43.9,40.6,30.06,NW,315,2.0,7.8,88,0.00,,,0.25,WUHU21623XXSP,2013-04-16 11:03:00,
2013-04-16 06:08:00,43.9,40.6,30.06,NW,315,7.6,7.6,88,0.00,,,0.25,WUHU21623XXSP,2013-04-16 11:08:00,
2013-04-16 06:13:00,44.1,40.7,30.06,NW,315,1.1,7.6,88,0.00,,,0.25,WUHU21623XXSP,2013-04-16 11:13:00,
2013-04-16 06:18:00,43.9,40.6,30.06,NNW,337,3.4,8.1,88,0.00,,,0.25,WUHU21623XXSP,2013-04-16 11:18:00,
2013-04-16 06:23:00,43.9,40.6,30.06,NW,315,0.0,8.1,88,0.00,,,0.25,WUHU21623XXSP,2013-04-16 11:23:00,
2013-04-16 06:28:00,43.9,40.6,30.07,NW,315,8.5,8.5,88,0.00,,,0.25,WUHU21623XXSP,2013-04-16 11:28:00,
2013-04-16 06:33:00,44.1,40.7,30.08,NW,315,8.5,8.5,88,0.00,,,0.25,WUHU21623XXSP,2013-04-16 11:33:00,
2013-04-16 06:38:00,44.1,40.7,30.07,NNW,337,8.5,8.5,88,0.00,,,0.25,WUHU21623XXSP,2013-04-16 11:38:00,
2013-04-16 06:43:00,44.1,40.7,30.08,NW,315,6.7,8.5,88,0.00,,,0.25,WUHU21623XXSP,2013-04-16 11:43:00,
2013-04-16 06:48:00,44.1,40.7,30.07,North,0,6.7,6.7,88,0.00,,,0.25,WUHU21623XXSP,2013-04-16 11:48:00,
2013-04-16 06:53:00,43.9,40.3,30.08,NW,315,4.5,6.7,87,0.00,,,0.25,WUHU21623XXSP,2013-04-16 11:53:00,
2013-04-16 06:58:00,43.9,40.3,30.08,NW,315,0.0,4.7,87,0.00,,,0.25,WUHU21623XXSP,2013-04-16 11:58:00,
2013-04-16 07:03:00,43.9,40.3,30.08,NW,315,0.0,1.8,87,0.00,,,0.25,WUHU21623XXSP,2013-04-16 12:03:00,
2013-04-16 07:08:00,44.1,40.4,30.08,NW,315,7.6,7.6,87,0.00,,,0.25,WUHU21623XXSP,2013-04-16 12:08:00,
2013-04-16 07:13:00,44.2,40.6,30.08,NW,315,0.0,7.6,87,0.00,,,0.25,WUHU21623XXSP,2013-04-16 12:13:00,
2013-04-16 07:18:00,44.2,40.6,30.09,WNW,292,0.0,5.6,87,0.00,,,0.25,WUHU21623XXSP,2013-04-16 12:18:00,
2013-04-16 07:23:00,44.2,40.6,30.10,NW,315,2.0,5.6,87,0.00,,,0.25,WUHU21623XXSP,2013-04-16 12:23:00,
2013-04-16 07:28:00,44.2,40.3,30.10,NW,315,0.0,2.0,86,0.00,,,0.25,WUHU21623XXSP,2013-04-16 12:28:00,
2013-04-16 07:33:00,44.2,40.3,30.10,NW,315,0.0,1.3,86,0.00,,,0.25,WUHU21623XXSP,2013-04-16 12:33:00,
2013-04-16 07:39:00,44.2,40.3,30.11,NNW,337,0.0,0.0,86,0.00,,,0.25,WUHU21623XXSP,2013-04-16 12:39:00,
2013-04-16 07:44:00,44.4,40.5,30.11,NW,315,0.0,0.0,86,0.00,,,0.25,WUHU21623XXSP,2013-04-16 12:44:00,
2013-04-16 07:49:00,44.4,40.5,30.11,NW,315,0.0,0.0,85,0.00,,,0.25,WUHU21623XXSP,2013-04-16 12:49:00,
2013-04-16 07:54:00,44.4,40.2,30.11,NNW,337,7.6,7.6,85,0.00,,,0.25,WUHU21623XXSP,2013-04-16 12:54:00,
2013-04-16 07:59:00,44.4,40.2,30.10,NW,315,3.1,7.6,85,0.00,,,0.25,WUHU21623XXSP,2013-04-16 12:59:00,
2013-04-16 08:04:00,44.4,40.2,30.11,NNW,337,0.0,3.1,85,0.00,,,0.25,WUHU21623XXSP,2013-04-16 13:04:00,
2013-04-16 08:09:00,44.4,40.2,30.11,NNW,337,0.0,1.6,85,0.00,,,0.25,WUHU21623XXSP,2013-04-16 13:09:00,
2013-04-16 08:14:00,44.4,40.2,30.11,NNW,337,0.0,0.0,85,0.00,,,0.25,WUHU21623XXSP,2013-04-16 13:14:00,
2013-04-16 08:19:00,44.8,40.2,30.11,NW,315,0.0,7.2,84,0.00,,,0.25,WUHU21623XXSP,2013-04-16 13:19:00,
2013-04-16 08:24:00,45.0,40.2,30.12,NW,315,0.0,7.2,84,0.00,,,0.25,WUHU21623XXSP,2013-04-16 13:24:00,
2013-04-16 08:29:00,45.0,39.8,30.11,NNW,337,6.9,6.9,82,0.00,,,0.25,WUHU21623XXSP,2013-04-16 13:29:00,
2013-04-16 08:34:00,45.0,39.8,30.10,NNW,337,0.0,6.9,82,0.00,,,0.25,WUHU21623XXSP,2013-04-16 13:34:00,
2013-04-16 08:39:00,45.7,40.8,30.11,NW,315,0.0,6.9,83,0.00,,,0.25,WUHU21623XXSP,2013-04-16 13:39:00,
2013-04-16 08:44:00,46.0,40.6,30.11,NNW,337,7.6,7.6,81,0.00,,,0.25,WUHU21623XXSP,2013-04-16 13:44:00,
2013-04-16 08:49:00,46.0,40.6,30.11,NW,315,6.5,10.5,81,0.00,,,0.25,WUHU21623XXSP,2013-04-16 13:49:00,
2013-04-16 08:54:00,46.0,40.3,30.11,NW,315,4.0,10.5,80,0.00,,,0.25,WUHU21623XXSP,2013-04-16 13:54:00,
2013-04-16 08:59:00,46.2,40.3,30.11,NNW,337,1.8,8.3,81,0.00,,,0.25,WUHU21623XXSP,2013-04-16 13:59:00,
2013-04-16 09:04:00,46.2,40.8,30.11,NNW,337,2.9,7.6,80,0.00,,,0.25,WUHU21623XXSP,2013-04-16 14:04:00,
2013-04-16 09:09:00,46.6,40.8,30.11,NW,315,0.0,7.6,80,0.00,,,0.25,WUHU21623XXSP,2013-04-16 14:09:00,
2013-04-16 09:14:00,47.1,41.3,30.11,NW,315,6.3,7.6,80,0.00,,,0.25,WUHU21623XXSP,2013-04-16 14:14:00,
2013-04-16 09:19:00,47.1,40.9,30.11,NNW,337,0.0,6.3,79,0.00,,,0.25,WUHU21623XXSP,2013-04-16 14:19:00,
2013-04-16 09:24:00,47.3,40.8,30.11,NW,315,8.3,8.3,78,0.00,,,0.25,WUHU21623XXSP,2013-04-16 14:24:00,
2013-04-16 09:29:00,47.3,40.4,30.11,NW,315,1.6,8.3,77,0.00,,,0.25,WUHU21623XXSP,2013-04-16 14:29:00,
2013-04-16 09:34:00,47.5,40.6,30.11,NW,315,0.0,3.4,77,0.00,,,0.25,WUHU21623XXSP,2013-04-16 14:34:00,
2013-04-16 09:39:00,47.8,39.9,30.11,NW,315,0.0,2.7,75,0.00,,,0.25,WUHU21623XXSP,2013-04-16 14:39:00,
2013-04-16 09:44:00,48.0,40.4,30.11,NNW,337,7.2,7.2,75,0.00,,,0.25,WUHU21623XXSP,2013-04-16 14:44:00,
2013-04-16 09:49:00,48.0,40.4,30.12,NNW,337,0.0,7.2,75,0.00,,,0.25,WUHU21623XXSP,2013-04-16 14:49:00,
2013-04-16 09:54:00,48.6,40.9,30.11,NNW,337,7.2,7.2,75,0.00,,,0.25,WUHU21623XXSP,2013-04-16 14:54:00,
2013-04-16 09:59:00,48.6,40.6,30.11,North,0,0.0,7.2,73,0.00,,,0.25,WUHU21623XXSP,2013-04-16 14:59:00,
2013-04-16 10:04:00,48.7,40.7,30.10,North,0,0.0,0.0,74,0.00,,,0.25,WUHU21623XXSP,2013-04-16 15:04:00,
2013-04-16 10:09:00,48.7,40.1,30.11,NNW,337,6.5,6.5,72,0.00,,,0.25,WUHU21623XXSP,2013-04-16 15:09:00,
2013-04-16 10:14:00,48.9,40.6,30.11,NW,315,0.0,6.5,73,0.00,,,0.25,WUHU21623XXSP,2013-04-16 15:14:00,
2013-04-16 10:19:00,49.5,41.1,30.12,NW,315,5.8,6.5,73,0.00,,,0.25,WUHU21623XXSP,2013-04-16 15:19:00,
2013-04-16 10:24:00,49.5,40.6,30.12,NNW,337,9.8,9.8,70,0.00,,,0.25,WUHU21623XXSP,2013-04-16 15:24:00,
2013-04-16 10:29:00,49.3,39.9,30.13,NW,315,4.7,9.8,70,0.00,,,0.25,WUHU21623XXSP,2013-04-16 15:29:00,
2013-04-16 10:34:00,49.5,40.3,30.12,NW,315,8.5,8.5,70,0.00,,,0.25,WUHU21623XXSP,2013-04-16 15:34:00,
2013-04-16 10:39:00,49.8,40.3,30.12,NNW,337,0.0,8.5,70,0.00,,,0.25,WUHU21623XXSP,2013-04-16 15:39:00,
2013-04-16 10:44:00,50.4,40.5,30.13,North,0,0.0,0.2,70,0.00,,,0.25,WUHU21623XXSP,2013-04-16 15:44:00,
2013-04-16 10:49:00,50.5,41.2,30.14,NNW,337,3.8,5.4,70,0.00,,,0.25,WUHU21623XXSP,2013-04-16 15:49:00,
2013-04-16 10:54:00,50.9,41.1,30.13,NNW,337,0.0,5.4,69,0.00,,,0.25,WUHU21623XXSP,2013-04-16 15:54:00,
2013-04-16 10:59:00,51.3,41.3,30.13,NNW,337,0.0,0.0,69,0.00,,,0.25,WUHU21623XXSP,2013-04-16 15:59:00,
2013-04-16 11:04:00,51.4,42.1,30.14,NNW,337,0.0,0.0,70,0.00,,,0.25,WUHU21623XXSP,2013-04-16 16:04:00,
2013-04-16 11:09:00,51.1,41.1,30.15,NW,315,7.6,7.6,68,0.00,,,0.25,WUHU21623XXSP,2013-04-16 16:09:00,
2013-04-16 11:14:00,51.1,41.7,30.16,WNW,292,7.8,7.8,70,0.00,,,0.25,WUHU21623XXSP,2013-04-16 16:14:00,
2013-04-16 11:19:00,50.9,41.3,30.15,NW,315,0.0,7.8,69,0.00,,,0.25,WUHU21623XXSP,2013-04-16 16:19:00,
2013-04-16 11:24:00,50.7,41.1,30.16,NW,315,8.3,8.3,69,0.00,,,0.25,WUHU21623XXSP,2013-04-16 16:24:00,
2013-04-16 11:29:00,50.7,40.9,30.17,NW,315,3.1,8.3,69,0.00,,,0.25,WUHU21623XXSP,2013-04-16 16:29:00,
2013-04-16 11:34:00,50.7,40.9,30.17,NNW,337,0.0,7.6,69,0.00,,,0.25,WUHU21623XXSP,2013-04-16 16:34:00,
2013-04-16 11:39:00,50.9,41.1,30.16,NNW,337,0.0,7.6,69,0.00,,,0.25,WUHU21623XXSP,2013-04-16 16:39:00,
2013-04-16 11:44:00,51.6,41.7,30.16,NNW,337,0.0,0.0,69,0.00,,,0.25,WUHU21623XXSP,2013-04-16 16:44:00,
2013-04-16 11:49:00,51.6,41.4,30.16,NNW,337,0.0,0.0,68,0.00,,,0.25,WUHU21623XXSP,2013-04-16 16:49:00,
2013-04-16 11:54:00,51.6,41.4,30.16,NNW,337,0.0,0.0,68,0.00,,,0.25,WUHU21623XXSP,2013-04-16 16:54:00,
2013-04-16 12:00:00,51.6,41.8,30.15,NNW,337,2.7,2.7,69,0.00,,,0.25,WUHU21623XXSP,2013-04-16 17:00:00,
2013-04-16 12:05:00,51.6,41.4,30.15,NW,315,0.0,2.7,68,0.00,,,0.25,WUHU21623XXSP,2013-04-16 17:05:00,
2013-04-16 12:09:00,51.6,41.4,30.14,NNW,337,0.0,0.0,68,0.00,,,0.25,WUHU21623XXSP,2013-04-16 17:09:00,
2013-04-16 12:15:00,51.4,41.7,30.14,NW,315,10.5,10.5,69,0.00,,,0.25,WUHU21623XXSP,2013-04-16 17:15:00,
2013-04-16 12:20:00,51.1,41.3,30.14,North,0,0.0,10.5,69,0.00,,,0.25,WUHU21623XXSP,2013-04-16 17:20:00,
2013-04-16 12:25:00,50.7,40.9,30.14,NW,315,6.5,7.8,69,0.00,,,0.25,WUHU21623XXSP,2013-04-16 17:25:00,
2013-04-16 12:30:00,50.7,40.9,30.14,NW,315,7.4,7.4,69,0.00,,,0.25,WUHU21623XXSP,2013-04-16 17:30:00,
2013-04-16 12:35:00,50.9,41.1,30.14,NNW,337,7.8,7.8,69,0.00,,,0.25,WUHU21623XXSP,2013-04-16 17:35:00,
2013-04-16 12:40:00,50.9,41.1,30.15,NW,315,5.4,7.8,69,0.00,,,0.25,WUHU21623XXSP,2013-04-16 17:40:00,
2013-04-16 12:45:00,51.1,40.9,30.15,NW,315,1.3,5.4,67,0.00,,,0.25,WUHU21623XXSP,2013-04-16 17:45:00,
2013-04-16 12:50:00,51.3,40.3,30.16,NW,315,6.5,6.5,66,0.00,,,0.25,WUHU21623XXSP,2013-04-16 17:50:00,
2013-04-16 12:55:00,51.4,40.4,30.16,WNW,292,0.0,6.5,66,0.00,,,0.25,WUHU21623XXSP,2013-04-16 17:55:00,
2013-04-16 13:00:00,51.6,40.6,30.15,NW,315,0.0,8.1,66,0.00,,,0.25,WUHU21623XXSP,2013-04-16 18:00:00,
2013-04-16 13:05:00,51.6,40.6,30.15,NW,315,0.0,8.1,66,0.00,,,0.25,WUHU21623XXSP,2013-04-16 18:05:00,
2013-04-16 13:10:00,52.3,41.3,30.15,NW,315,4.7,4.7,66,0.00,,,0.25,WUHU21623XXSP,2013-04-16 18:10:00,
2013-04-16 13:15:00,52.3,40.9,30.15,NW,315,0.0,4.7,64,0.00,,,0.25,WUHU21623XXSP,2013-04-16 18:15:00,
2013-04-16 13:20:00,52.9,40.6,30.14,NW,315,0.0,4.7,63,0.00,,,0.25,WUHU21623XXSP,2013-04-16 18:20:00,
2013-04-16 13:25:00,52.3,39.6,30.13,NNW,337,0.0,6.5,62,0.00,,,0.25,WUHU21623XXSP,2013-04-16 18:25:00,
2013-04-16 13:30:00,52.0,39.1,30.13,NNW,337,8.7,8.7,61,0.00,,,0.25,WUHU21623XXSP,2013-04-16 18:30:00,
2013-04-16 13:35:00,51.6,38.9,30.13,NNW,337,0.0,8.7,62,0.00,,,0.25,WUHU21623XXSP,2013-04-16 18:35:00,
2013-04-16 13:40:00,52.0,40.1,30.15,NW,315,5.4,7.8,64,0.00,,,0.25,WUHU21623XXSP,2013-04-16 18:40:00,
2013-04-16 13:45:00,52.0,39.3,30.15,NW,315,0.0,5.4,62,0.00,,,0.25,WUHU21623XXSP,2013-04-16 18:45:00,
2013-04-16 13:50:00,52.7,39.6,30.15,NW,315,4.7,4.7,61,0.00,,,0.25,WUHU21623XXSP,2013-04-16 18:50:00,
2013-04-16 13:55:00,53.1,40.0,30.16,NNW,337,0.0,4.7,61,0.00,,,0.25,WUHU21623XXSP,2013-04-16 18:55:00,
2013-04-16 14:00:00,53.1,39.4,30.16,NNW,337,0.0,4.7,60,0.00,,,0.25,WUHU21623XXSP,2013-04-16 19:00:00,
2013-04-16 14:05:00,53.4,39.7,30.16,NNW,337,0.0,0.0,60,0.00,,,0.25,WUHU21623XXSP,2013-04-16 19:05:00,
2013-04-16 14:10:00,53.8,40.3,30.16,NW,315,4.0,4.0,59,0.00,,,0.25,WUHU21623XXSP,2013-04-16 19:10:00,
2013-04-16 14:15:00,54.0,40.4,30.17,NW,315,0.0,4.0,60,0.00,,,0.25,WUHU21623XXSP,2013-04-16 19:15:00,
2013-04-16 14:20:00,54.9,40.3,30.17,NW,315,2.7,7.2,58,0.00,,,0.25,WUHU21623XXSP,2013-04-16 19:20:00,
2013-04-16 14:25:00,54.5,40.1,30.17,NW,315,4.3,7.2,58,0.00,,,0.25,WUHU21623XXSP,2013-04-16 19:25:00,
2013-04-16 14:30:00,54.5,40.0,30.16,NW,315,0.0,4.3,58,0.00,,,0.25,WUHU21623XXSP,2013-04-16 19:30:00,
2013-04-16 14:35:00,54.7,40.6,30.16,NW,315,0.0,0.0,59,0.00,,,0.25,WUHU21623XXSP,2013-04-16 19:35:00,
2013-04-16 14:40:00,54.7,39.7,30.16,NW,315,0.0,0.0,57,0.00,,,0.25,WUHU21623XXSP,2013-04-16 19:40:00,
2013-04-16 14:45:00,55.2,40.6,30.16,NW,315,0.0,0.0,58,0.00,,,0.25,WUHU21623XXSP,2013-04-16 19:45:00,
2013-04-16 14:50:00,55.2,40.2,30.15,NW,315,2.0,3.4,57,0.00,,,0.25,WUHU21623XXSP,2013-04-16 19:50:00,
2013-04-16 14:55:00,54.9,40.0,30.16,NW,315,2.0,3.4,57,0.00,,,0.25,WUHU21623XXSP,2013-04-16 19:55:00,
2013-04-16 15:00:00,54.7,39.7,30.16,NW,315,2.0,2.0,58,0.00,,,0.25,WUHU21623XXSP,2013-04-16 20:00:00,
2013-04-16 15:05:00,54.9,39.8,30.16,NW,315,0.0,3.4,57,0.00,,,0.25,WUHU21623XXSP,2013-04-16 20:05:00,
2013-04-16 15:10:00,54.7,39.8,30.15,NW,315,0.0,3.4,57,0.00,,,0.25,WUHU21623XXSP,2013-04-16 20:10:00,
2013-04-16 15:15:00,54.5,40.0,30.14,NW,315,0.0,0.0,57,0.00,,,0.25,WUHU21623XXSP,2013-04-16 20:15:00,
2013-04-16 15:20:00,54.7,39.7,30.14,North,0,1.3,6.3,57,0.00,,,0.25,WUHU21623XXSP,2013-04-16 20:20:00,
2013-04-16 15:25:00,54.9,39.7,30.14,North,0,1.3,6.3,57,0.00,,,0.25,WUHU21623XXSP,2013-04-16 20:25:00,
2013-04-16 15:30:00,54.9,39.8,30.13,North,0,0.0,1.3,57,0.00,,,0.25,WUHU21623XXSP,2013-04-16 20:30:00,
2013-04-16 15:35:00,55.2,40.6,30.13,NW,315,0.9,4.5,58,0.00,,,0.25,WUHU21623XXSP,2013-04-16 20:35:00,
2013-04-16 15:40:00,55.6,40.0,30.14,NW,315,0.0,4.5,56,0.00,,,0.25,WUHU21623XXSP,2013-04-16 20:40:00,
2013-04-16 15:45:00,55.8,40.7,30.15,WSW,247,0.0,0.0,57,0.00,,,0.25,WUHU21623XXSP,2013-04-16 20:45:00,
2013-04-16 15:50:00,55.9,40.7,30.15,WSW,247,0.0,0.0,56,0.00,,,0.25,WUHU21623XXSP,2013-04-16 20:50:00,
2013-04-16 15:55:00,55.9,39.9,30.14,NNE,22,0.0,0.0,55,0.00,,,0.25,WUHU21623XXSP,2013-04-16 20:55:00,
2013-04-16 16:00:00,55.8,39.9,30.15,North,0,0.0,0.0,55,0.00,,,0.25,WUHU21623XXSP,2013-04-16 21:00:00,
2013-04-16 16:05:00,55.8,39.7,30.15,WSW,247,0.0,0.0,55,0.00,,,0.25,WUHU21623XXSP,2013-04-16 21:05:00,
2013-04-16 16:10:00,56.3,40.7,30.15,WSW,247,0.0,5.6,56,0.00,,,0.25,WUHU21623XXSP,2013-04-16 21:10:00,
2013-04-16 16:15:00,56.3,40.7,30.15,WSW,247,5.8,5.8,56,0.00,,,0.25,WUHU21623XXSP,2013-04-16 21:15:00,
2013-04-16 16:20:00,55.9,39.9,30.14,NE,45,0.0,5.8,55,0.00,,,0.25,WUHU21623XXSP,2013-04-16 21:20:00,
2013-04-16 16:25:00,55.8,39.7,30.14,WSW,247,6.7,6.7,55,0.00,,,0.25,WUHU21623XXSP,2013-04-16 21:25:00,
2013-04-16 16:30:00,56.1,40.1,30.14,WSW,247,0.0,6.7,55,0.00,,,0.25,WUHU21623XXSP,2013-04-16 21:30:00,
2013-04-16 16:35:00,55.9,42.4,30.14,ESE,112,9.2,9.2,60,0.00,,,0.25,WUHU21623XXSP,2013-04-16 21:35:00,
2013-04-16 16:40:00,55.6,43.1,30.14,ESE,112,6.3,9.2,64,0.00,,,0.25,WUHU21623XXSP,2013-04-16 21:40:00,
2013-04-16 16:45:00,54.1,42.6,30.15,ENE,67,9.8,9.8,65,0.00,,,0.25,WUHU21623XXSP,2013-04-16 21:45:00,
2013-04-16 16:50:00,53.8,42.2,30.14,East,90,7.2,9.8,65,0.00,,,0.25,WUHU21623XXSP,2013-04-16 21:50:00,
2013-04-16 16:55:00,53.4,42.6,30.15,East,90,7.2,9.8,65,0.00,,,0.25,WUHU21623XXSP,2013-04-16 21:55:00,
2013-04-16 17:01:00,52.9,42.1,30.16,East,90,6.0,8.7,65,0.00,,,0.25,WUHU21623XXSP,2013-04-16 22:01:00,
2013-04-16 17:06:00,52.9,41.8,30.16,East,90,0.0,6.0,66,0.00,,,0.25,WUHU21623XXSP,2013-04-16 22:06:00,
2013-04-16 17:11:00,52.9,41.8,30.16,East,90,6.3,9.2,66,0.00,,,0.25,WUHU21623XXSP,2013-04-16 22:11:00,
2013-04-16 17:16:00,52.9,41.8,30.16,ENE,67,8.7,9.2,66,0.00,,,0.25,WUHU21623XXSP,2013-04-16 22:16:00,
2013-04-16 17:21:00,52.9,41.8,30.16,ENE,67,0.0,8.7,66,0.00,,,0.25,WUHU21623XXSP,2013-04-16 22:21:00,
2013-04-16 17:26:00,52.5,42.3,30.16,ESE,112,4.3,8.3,68,0.00,,,0.25,WUHU21623XXSP,2013-04-16 22:26:00,
2013-04-16 17:31:00,52.3,42.1,30.16,ENE,67,0.7,8.3,68,0.00,,,0.25,WUHU21623XXSP,2013-04-16 22:31:00,
2013-04-16 17:36:00,52.3,42.5,30.17,ENE,67,5.6,5.6,69,0.00,,,0.25,WUHU21623XXSP,2013-04-16 22:36:00,
2013-04-16 17:41:00,51.6,42.9,30.16,NE,45,0.0,5.6,71,0.00,,,0.25,WUHU21623XXSP,2013-04-16 22:41:00,
2013-04-16 17:46:00,51.3,42.4,30.16,NE,45,0.9,5.6,71,0.00,,,0.25,WUHU21623XXSP,2013-04-16 22:46:00,
2013-04-16 17:51:00,51.1,42.7,30.17,NE,45,0.0,0.9,73,0.00,,,0.25,WUHU21623XXSP,2013-04-16 22:51:00,
2013-04-16 17:56:00,50.9,42.9,30.18,ENE,67,0.0,0.0,74,0.00,,,0.25,WUHU21623XXSP,2013-04-16 22:56:00,
2013-04-16 18:01:00,50.5,42.5,30.17,NE,45,0.0,2.9,74,0.00,,,0.25,WUHU21623XXSP,2013-04-16 23:01:00,
2013-04-16 18:06:00,50.5,42.5,30.17,ENE,67,5.1,5.1,74,0.00,,,0.25,WUHU21623XXSP,2013-04-16 23:06:00,
2013-04-16 18:11:00,50.5,42.5,30.16,ENE,67,7.2,7.2,74,0.00,,,0.25,WUHU21623XXSP,2013-04-16 23:11:00,
2013-04-16 18:16:00,50.5,42.5,30.17,ENE,67,2.0,7.2,74,0.00,,,0.25,WUHU21623XXSP,2013-04-16 23:16:00,
2013-04-16 18:21:00,50.5,42.5,30.17,ENE,67,5.6,6.9,74,0.00,,,0.25,WUHU21623XXSP,2013-04-16 23:21:00,
2013-04-16 18:26:00,50.5,42.2,30.17,ENE,67,4.3,7.4,73,0.00,,,0.25,WUHU21623XXSP,2013-04-16 23:26:00,
2013-04-16 18:31:00,50.4,42.0,30.17,East,90,2.0,4.3,73,0.00,,,0.25,WUHU21623XXSP,2013-04-16 23:31:00,
2013-04-16 18:36:00,50.5,42.4,30.17,East,90,0.0,2.0,74,0.00,,,0.25,WUHU21623XXSP,2013-04-16 23:36:00,
2013-04-16 18:41:00,50.5,42.5,30.17,East,90,7.4,7.8,74,0.00,,,0.25,WUHU21623XXSP,2013-04-16 23:41:00,
2013-04-16 18:46:00,50.4,42.4,30.18,ENE,67,0.9,7.8,74,0.00,,,0.25,WUHU21623XXSP,2013-04-16 23:46:00,
2013-04-16 18:51:00,50.2,41.8,30.18,ENE,67,0.0,5.6,73,0.00,,,0.25,WUHU21623XXSP,2013-04-16 23:51:00,
2013-04-16 18:56:00,49.8,41.1,30.18,ENE,67,0.0,6.3,72,0.00,,,0.25,WUHU21623XXSP,2013-04-16 23:56:00,
2013-04-16 19:01:00,49.8,41.1,30.19,ENE,67,7.6,7.6,72,0.00,,,0.25,WUHU21623XXSP,2013-04-17 00:01:00,
2013-04-16 19:07:00,49.6,41.0,30.19,ENE,67,0.0,7.6,73,0.00,,,0.25,WUHU21623XXSP,2013-04-17 00:07:00,
2013-04-16 19:12:00,49.3,40.9,30.19,ENE,67,1.8,3.4,73,0.00,,,0.25,WUHU21623XXSP,2013-04-17 00:12:00,
2013-04-16 19:17:00,49.3,41.1,30.18,ENE,67,4.5,4.5,73,0.00,,,0.25,WUHU21623XXSP,2013-04-17 00:17:00,
2013-04-16 19:22:00,49.1,40.6,30.18,ENE,67,5.4,8.9,72,0.00,,,0.25,WUHU21623XXSP,2013-04-17 00:22:00,
2013-04-16 19:27:00,49.1,40.4,30.18,ENE,67,5.4,8.9,72,0.00,,,0.25,WUHU21623XXSP,2013-04-17 00:27:00,
2013-04-16 19:32:00,48.9,40.6,30.18,NE,45,4.5,5.4,73,0.00,,,0.25,WUHU21623XXSP,2013-04-17 00:32:00,
2013-04-16 19:37:00,48.9,40.9,30.17,NE,45,0.0,5.4,74,0.00,,,0.25,WUHU21623XXSP,2013-04-17 00:37:00,
2013-04-16 19:42:00,48.7,41.3,30.18,NE,45,0.0,0.0,74,0.00,,,0.25,WUHU21623XXSP,2013-04-17 00:42:00,
2013-04-16 19:47:00,48.7,40.7,30.18,ENE,67,2.9,2.9,74,0.00,,,0.25,WUHU21623XXSP,2013-04-17 00:47:00,
2013-04-16 19:52:00,48.6,40.4,30.18,ENE,67,0.0,7.8,73,0.00,,,0.25,WUHU21623XXSP,2013-04-17 00:52:00,
2013-04-16 19:57:00,48.6,40.9,30.18,NE,45,5.8,7.8,74,0.00,,,0.25,WUHU21623XXSP,2013-04-17 00:57:00,
2013-04-16 20:02:00,48.4,40.7,30.18,NE,45,0.0,7.6,75,0.00,,,0.25,WUHU21623XXSP,2013-04-17 01:02:00,
2013-04-16 20:07:00,48.4,40.4,30.18,NE,45,0.0,3.4,74,0.00,,,0.25,WUHU21623XXSP,2013-04-17 01:07:00,
2013-04-16 20:12:00,48.0,39.7,30.19,NNE,22,2.9,2.9,73,0.00,,,0.25,WUHU21623XXSP,2013-04-17 01:12:00,
2013-04-16 20:17:00,47.8,39.5,30.19,NE,45,2.9,2.9,73,0.00,,,0.25,WUHU21623XXSP,2013-04-17 01:17:00,
2013-04-16 20:22:00,47.5,39.0,30.18,ENE,67,4.5,4.5,72,0.00,,,0.25,WUHU21623XXSP,2013-04-17 01:22:00,
2013-04-16 20:27:00,47.5,38.9,30.19,NE,45,3.8,4.5,72,0.00,,,0.25,WUHU21623XXSP,2013-04-17 01:27:00,
2013-04-16 20:32:00,47.1,38.6,30.20,NE,45,2.9,3.8,72,0.00,,,0.25,WUHU21623XXSP,2013-04-17 01:32:00,
2013-04-16 20:37:00,47.1,38.6,30.21,NNE,22,0.0,2.9,72,0.00,,,0.25,WUHU21623XXSP,2013-04-17 01:37:00,
2013-04-16 20:42:00,46.9,39.1,30.21,North,0,0.0,1.1,74,0.00,,,0.25,WUHU21623XXSP,2013-04-17 01:42:00,
2013-04-16 20:47:00,46.6,38.9,30.21,NNE,22,1.3,5.8,74,0.00,,,0.25,WUHU21623XXSP,2013-04-17 01:47:00,
2013-04-16 20:52:00,46.4,38.6,30.21,NE,45,4.7,5.8,74,0.00,,,0.25,WUHU21623XXSP,2013-04-17 01:52:00,
2013-04-16 20:57:00,46.2,38.6,30.21,NE,45,4.7,4.7,74,0.00,,,0.25,WUHU21623XXSP,2013-04-17 01:57:00,
2013-04-16 21:02:00,46.2,38.1,30.21,ENE,67,6.0,6.0,73,0.00,,,0.25,WUHU21623XXSP,2013-04-17 02:02:00,
2013-04-16 21:07:00,46.2,38.4,30.22,NE,45,0.0,6.0,74,0.00,,,0.25,WUHU21623XXSP,2013-04-17 02:07:00,
2013-04-16 21:12:00,46.0,38.2,30.22,NE,45,7.8,7.8,74,0.00,,,0.25,WUHU21623XXSP,2013-04-17 02:12:00,
2013-04-16 21:17:00,46.0,37.9,30.22,NNE,22,4.3,7.8,73,0.00,,,0.25,WUHU21623XXSP,2013-04-17 02:17:00,
2013-04-16 21:22:00,45.9,38.0,30.22,NE,45,0.0,7.6,74,0.00,,,0.25,WUHU21623XXSP,2013-04-17 02:22:00,
2013-04-16 21:27:00,45.7,37.9,30.22,ENE,67,0.0,3.1,74,0.00,,,0.25,WUHU21623XXSP,2013-04-17 02:27:00,
2013-04-16 21:32:00,45.7,37.9,30.22,NE,45,4.7,4.7,74,0.00,,,0.25,WUHU21623XXSP,2013-04-17 02:32:00,
2013-04-16 21:37:00,45.7,37.9,30.22,NE,45,7.8,7.8,74,0.00,,,0.25,WUHU21623XXSP,2013-04-17 02:37:00,
2013-04-16 21:42:00,45.7,37.9,30.22,ENE,67,3.1,7.8,75,0.00,,,0.25,WUHU21623XXSP,2013-04-17 02:42:00,
2013-04-16 21:47:00,45.5,38.0,30.22,NE,45,0.0,8.9,75,0.00,,,0.25,WUHU21623XXSP,2013-04-17 02:47:00,
2013-04-16 21:52:00,45.5,38.0,30.22,NE,45,0.0,8.9,75,0.00,,,0.25,WUHU21623XXSP,2013-04-17 02:52:00,
2013-04-16 21:57:00,45.5,37.7,30.22,ENE,67,7.4,7.4,74,0.00,,,0.25,WUHU21623XXSP,2013-04-17 02:57:00,
2013-04-16 22:02:00,45.1,37.3,30.21,ENE,67,0.0,7.4,74,0.00,,,0.25,WUHU21623XXSP,2013-04-17 03:02:00,
2013-04-16 22:07:00,45.1,37.7,30.22,NE,45,0.0,6.0,75,0.00,,,0.25,WUHU21623XXSP,2013-04-17 03:07:00,
2013-04-16 22:12:00,45.1,37.7,30.22,NE,45,0.0,0.0,75,0.00,,,0.25,WUHU21623XXSP,2013-04-17 03:12:00,
2013-04-16 22:17:00,45.0,37.1,30.23,NE,45,8.9,8.9,74,0.00,,,0.25,WUHU21623XXSP,2013-04-17 03:17:00,
2013-04-16 22:22:00,45.0,37.1,30.22,NE,45,0.7,8.9,75,0.00,,,0.25,WUHU21623XXSP,2013-04-17 03:22:00,
2013-04-16 22:27:00,45.0,37.5,30.23,NE,45,6.9,8.9,75,0.00,,,0.25,WUHU21623XXSP,2013-04-17 03:27:00,
2013-04-16 22:32:00,45.0,37.5,30.23,NE,45,0.0,6.9,75,0.00,,,0.25,WUHU21623XXSP,2013-04-17 03:32:00,
2013-04-16 22:38:00,45.0,37.5,30.24,ENE,67,0.0,0.0,75,0.00,,,0.25,WUHU21623XXSP,2013-04-17 03:38:00,
2013-04-16 22:43:00,45.0,37.5,30.24,ENE,67,0.0,1.1,75,0.00,,,0.25,WUHU21623XXSP,2013-04-17 03:43:00,
2013-04-16 22:48:00,45.0,37.5,30.24,ENE,67,0.0,1.1,75,0.00,,,0.25,WUHU21623XXSP,2013-04-17 03:48:00,
2013-04-16 22:52:00,45.0,37.5,30.24,NE,45,0.0,0.0,75,0.00,,,0.25,WUHU21623XXSP,2013-04-17 03:52:00,
2013-04-16 22:57:00,45.0,37.8,30.24,NE,45,0.0,0.0,76,0.00,,,0.25,WUHU21623XXSP,2013-04-17 03:57:00,
2013-04-16 23:00:00,45.0,37.8,30.24,NE,45,0.0,0.0,76,0.00,,,0.25,WUHU21623XXSP,2013-04-17 04:00:00,
2013-04-16 23:05:00,45.0,37.8,30.24,NNE,22,0.0,0.0,76,0.00,,,0.25,WUHU21623XXSP,2013-04-17 04:05:00,
2013-04-16 23:10:00,45.0,37.8,30.24,NNE,22,0.0,0.0,76,0.00,,,0.25,WUHU21623XXSP,2013-04-17 04:10:00,
2013-04-16 23:15:00,44.8,37.3,30.23,NE,45,0.0,0.0,76,0.00,,,0.25,WUHU21623XXSP,2013-04-17 04:15:00,
2013-04-16 23:20:00,44.8,37.3,30.23,NE,45,0.0,1.6,75,0.00,,,0.25,WUHU21623XXSP,2013-04-17 04:20:00,
2013-04-16 23:25:00,44.6,37.1,30.23,NE,45,8.1,8.1,75,0.00,,,0.25,WUHU21623XXSP,2013-04-17 04:25:00,
2013-04-16 23:30:00,44.6,37.1,30.24,NNE,22,0.0,8.1,75,0.00,,,0.25,WUHU21623XXSP,2013-04-17 04:30:00,
2013-04-16 23:35:00,44.6,37.1,30.24,NNE,22,0.0,2.5,75,0.00,,,0.25,WUHU21623XXSP,2013-04-17 04:35:00,
2013-04-16 23:40:00,44.6,37.1,30.23,NNE,22,0.0,0.0,75,0.00,,,0.25,WUHU21623XXSP,2013-04-17 04:40:00,
2013-04-16 23:45:00,44.6,37.1,30.23,NNE,22,0.0,0.0,75,0.00,,,0.25,WUHU21623XXSP,2013-04-17 04:45:00,
2013-04-16 23:50:00,44.6,37.0,30.23,North,0,0.0,0.0,75,0.00,,,0.25,WUHU21623XXSP,2013-04-17 04:50:00,
2013-04-16 23:56:00,44.4,37.0,30.23,NNE,22,0.0,0.0,75,0.00,,,0.00,WUHU21623XXSP,2013-04-17 04:56:00,